Главная страница
METAR-TAF:

METAR-TAF

Аэропорты :

Форт-Мид, Мэриленд, США

широта: 39-05N, долгота: 076-46W, высота над уровнем моря: 46 м

Текущие метеонаблюдения

Эта сводка был подготовлена 1 час и 9 минут назад, в 22:42 UTC
Штиль
Температура 7°C
Влажность 87%
Давление 1022 hPa
Видимость: 16.1 км
ясное небо

METAR: KFME 222242Z AUTO 00000KT 10SM CLR 07/05 A3019 RMK AO1

Время: 19:51 (23:51 UTC)


TAF: отсутствует

Метеонаблюдения и прогнозы для более 4000 аэропортов (сводки METAR и TAF).

Имеющиеся станции представлены на карте желтыми и красными точками.

Чтобы увидеть название станции, наведите на нее мышь.

Затем щелкните, чтобы увидеть метеонаблюдения и метеопрогнозы.

Управление картой: чтобы увеличить масштаб, щелкните зеленые кнопки с черным крестиком; чтобы уменьшить масштаб, щелкните зеленую кнопку с тире; для просмотра соседних карт щелкайте зеленые стрелки.


METAR-TAF: